User: anonymous   Login
Location: Bangkok
(13.7500°N, 100.5170°E)
Time: 21:57:00
(UTC+07:00)
Language:

Cosmos 1898 Rocket - Orbit

View from above orbital plane
View from above orbital plane
View from above satellite
View from above satellite

Ground track
Ground track

The orbit data is extracted from the following two-line orbital elements,

1 18586U 87098B   15060.87526660  .00000238  00000-0  89938-4 0  9996
2 18586 074.0067 038.7999 0022296 291.9279 149.8625 14.36571062426977
Epoch (UTC): 01 March 2015 21:00:23
Eccentricity: 0.0022296
inclination: 74.0067°
perigee height: 754 km
apogee height: 786 km
right ascension of ascending node: 38.7999°
argument of perigee: 291.9279°
revolutions per day: 14.36571062
mean anomaly at epoch: 149.8625°
orbit number at epoch: 42697

The dashed part of the orbit path shows where the satellite is in the earth's shadow,  

DLR